| time (UTC) | temp C | wind direction | speed KPH | gust KPH | rain 1hr cm | rain 24hr cm | rain mn cm | humidity % | barometer mb |
| 20260504035225 | 12 | 7 | 20.9 | 25.7 | 0.00 | 0.00 | 0.00 | 46 | 1008.5 |
| 20260504034722 | 11 | 5 | 12.9 | 14.5 | 0.00 | 0.00 | 0.00 | 49 | 1008.1 |
| 20260504034219 | 10 | 352 | 9.7 | 11.3 | 0.00 | 0.00 | 0.00 | 51 | 1008.0 |
| 20260504033717 | 11 | 333 | 6.4 | 8.0 | 0.00 | 0.00 | 0.00 | 51 | 1007.7 |
| 20260504033214 | 11 | 331 | 4.8 | 8.0 | 0.00 | 0.00 | 0.00 | 48 | 1007.6 |
| 20260504032711 | 12 | 358 | 8.0 | 9.7 | 0.00 | 0.00 | 0.00 | 44 | 1007.6 |
| 20260504032208 | 13 | 351 | 4.8 | 8.0 | 0.00 | 0.00 | 0.00 | 43 | 1007.6 |
| 20260504031705 | 13 | 356 | 8.0 | 14.5 | 0.00 | 0.00 | 0.00 | 41 | 1007.6 |
| 20260504031202 | 13 | 23 | 8.0 | 11.3 | 0.00 | 0.00 | 0.00 | 40 | 1007.5 |
| 20260504030658 | 14 | 8 | 6.4 | 12.9 | 0.00 | 0.00 | 0.00 | 40 | 1007.3 |
| 20260504030155 | 14 | 62 | 9.7 | 12.9 | 0.00 | 0.00 | 0.00 | 39 | 1007.1 |
| 20260504025652 | 15 | 6 | 9.7 | 14.5 | 0.00 | 0.00 | 0.00 | 38 | 1007.0 |
| 20260504025148 | 15 | 33 | 9.7 | 14.5 | 0.00 | 0.00 | 0.00 | 37 | 1007.1 |
| 20260504024646 | 15 | 15 | 12.9 | 16.1 | 0.00 | 0.00 | 0.00 | 38 | 1006.8 |
| 20260504024142 | 15 | 42 | 6.4 | 14.5 | 0.00 | 0.00 | 0.00 | 37 | 1006.9 |
| 20260504023639 | 15 | 27 | 14.5 | 20.9 | 0.00 | 0.00 | 0.00 | 37 | 1006.8 |
| 20260504023135 | 15 | 13 | 11.3 | 16.1 | 0.00 | 0.00 | 0.00 | 36 | 1006.7 |
| 20260504022632 | 15 | 8 | 8.0 | 16.1 | 0.00 | 0.00 | 0.00 | 37 | 1006.7 |
| 20260504022127 | 16 | 1 | 11.3 | 20.9 | 0.00 | 0.00 | 0.00 | 36 | 1006.8 |
| 20260504021626 | 16 | 74 | 11.3 | 16.1 | 0.00 | 0.00 | 0.00 | 36 | 1006.8 |
| 20260504021122 | 16 | 8 | 14.5 | 17.7 | 0.00 | 0.00 | 0.00 | 35 | 1006.8 |
| 20260504020619 | 16 | 11 | 14.5 | 22.5 | 0.00 | 0.00 | 0.00 | 34 | 1006.7 |
| 20260504020115 | 17 | 16 | 17.7 | 27.4 | 0.00 | 0.00 | 0.00 | 34 | 1006.7 |
| 20260504015612 | 17 | 12 | 17.7 | 33.8 | 0.00 | 0.00 | 0.00 | 33 | 1006.6 |
| 20260504015108 | 17 | 25 | 12.9 | 16.1 | 0.00 | 0.00 | 0.00 | 34 | 1006.4 |
| 20260504014604 | 18 | 36 | 14.5 | 29.0 | 0.00 | 0.00 | 0.00 | 32 | 1006.5 |
| 20260504014101 | 18 | 9 | 20.9 | 32.2 | 0.00 | 0.00 | 0.00 | 31 | 1006.5 |
| 20260504013559 | 18 | 18 | 14.5 | 20.9 | 0.00 | 0.00 | 0.00 | 29 | 1006.5 |
| 20260504013055 | 19 | 23 | 14.5 | 27.4 | 0.00 | 0.00 | 0.00 | 29 | 1006.4 |
| 20260504012553 | 19 | 6 | 12.9 | 24.1 | 0.00 | 0.00 | 0.00 | 29 | 1006.3 |
| 20260504012051 | 20 | 21 | 17.7 | 29.0 | 0.00 | 0.00 | 0.00 | 28 | 1006.5 |
| 20260504011547 | 20 | 353 | 19.3 | 27.4 | 0.00 | 0.00 | 0.00 | 27 | 1006.4 |
| 20260504011043 | 20 | 353 | 22.5 | 33.8 | 0.00 | 0.00 | 0.00 | 26 | 1006.5 |
| 20260504010539 | 20 | 2 | 17.7 | 32.2 | 0.00 | 0.00 | 0.00 | 26 | 1006.2 |
| 20260504010036 | 20 | 2 | 20.9 | 32.2 | 0.00 | 0.00 | 0.00 | 26 | 1006.4 |
| 20260504005532 | 21 | 15 | 17.7 | 24.1 | 0.00 | 0.00 | 0.00 | 26 | 1006.4 |
| 20260504005030 | 21 | 348 | 12.9 | 24.1 | 0.00 | 0.00 | 0.00 | 26 | 1006.2 |
| 20260504004528 | 21 | 332 | 24.1 | 29.0 | 0.00 | 0.00 | 0.00 | 25 | 1006.2 |
| 20260504004024 | 21 | 332 | 16.1 | 22.5 | 0.00 | 0.00 | 0.00 | 25 | 1006.0 |
| 20260504003520 | 22 | 306 | 24.1 | 33.8 | 0.00 | 0.00 | 0.00 | 25 | 1006.4 |
| 20260504003017 | 22 | 320 | 17.7 | 29.0 | 0.00 | 0.00 | 0.00 | 25 | 1006.4 |
| 20260504002514 | 22 | 314 | 20.9 | 25.7 | 0.00 | 0.00 | 0.00 | 23 | 1006.2 |
| 20260504002012 | 22 | 318 | 14.5 | 25.7 | 0.00 | 0.00 | 0.00 | 24 | 1006.2 |
| 20260504001509 | 22 | 326 | 14.5 | 27.4 | 0.00 | 0.00 | 0.00 | 24 | 1006.5 |
| 20260504001005 | 22 | 313 | 17.7 | 25.7 | 0.00 | 0.00 | 0.00 | 24 | 1006.3 |
| 20260504000503 | 22 | 298 | 17.7 | 33.8 | 0.00 | 0.00 | 0.00 | 23 | 1006.6 |
| 20260504000000 | 22 | 357 | 12.9 | 29.0 | 0.00 | 0.00 | 0.00 | 23 | 1006.6 |
| 20260503235458 | 22 | 325 | 20.9 | 29.0 | 0.00 | 0.00 | 0.00 | 23 | 1006.6 |
| 20260503234955 | 22 | 319 | 22.5 | 29.0 | 0.00 | 0.00 | 0.00 | 23 | 1006.8 |
| 20260503234452 | 22 | 312 | 22.5 | 27.4 | 0.00 | 0.00 | 0.00 | 23 | 1006.8 |
| 20260503233950 | 22 | 317 | 22.5 | 32.2 | 0.00 | 0.00 | 0.00 | 24 | 1006.7 |
| 20260503233446 | 22 | 345 | 27.4 | 35.4 | 0.00 | 0.00 | 0.00 | 24 | 1006.6 |
| 20260503232943 | 21 | 289 | 29.0 | 35.4 | 0.00 | 0.00 | 0.00 | 23 | 1006.6 |
| 20260503232440 | 22 | 322 | 27.4 | 32.2 | 0.00 | 0.00 | 0.00 | 23 | 1006.6 |
| 20260503231938 | 22 | 345 | 17.7 | 25.7 | 0.00 | 0.00 | 0.00 | 24 | 1006.6 |
| 20260503231435 | 22 | 307 | 27.4 | 33.8 | 0.00 | 0.00 | 0.00 | 23 | 1006.8 |
| 20260503230931 | 22 | 323 | 25.7 | 37.0 | 0.00 | 0.00 | 0.00 | 23 | 1006.6 |
| 20260503230428 | 22 | 321 | 29.0 | 37.0 | 0.00 | 0.00 | 0.00 | 23 | 1006.8 |
| 20260503225926 | 22 | 291 | 17.7 | 38.6 | 0.00 | 0.00 | 0.00 | 23 | 1006.6 |
| 20260503225422 | 22 | 336 | 20.9 | 37.0 | 0.00 | 0.00 | 0.00 | 23 | 1006.8 |
| 20260503224918 | 22 | 317 | 19.3 | 33.8 | 0.00 | 0.00 | 0.00 | 24 | 1006.9 |
| 20260503224415 | 22 | 301 | 24.1 | 29.0 | 0.00 | 0.00 | 0.00 | 23 | 1006.6 |
| 20260503223913 | 22 | 338 | 17.7 | 24.1 | 0.00 | 0.00 | 0.00 | 24 | 1007.0 |
| 20260503223410 | 22 | 329 | 24.1 | 32.2 | 0.00 | 0.00 | 0.00 | 23 | 1007.0 |
| 20260503222911 | 22 | 310 | 22.5 | 37.0 | 0.00 | 0.00 | 0.00 | 23 | 1006.9 |
| 20260503222409 | 22 | 325 | 27.4 | 32.2 | 0.00 | 0.00 | 0.00 | 23 | 1007.3 |
| 20260503221907 | 22 | 303 | 24.1 | 29.0 | 0.00 | 0.00 | 0.00 | 23 | 1006.8 |
| 20260503221406 | 22 | 315 | 22.5 | 32.2 | 0.00 | 0.00 | 0.00 | 23 | 1007.1 |
| 20260503220901 | 22 | 308 | 22.5 | 43.5 | 0.00 | 0.00 | 0.00 | 23 | 1007.4 |
| 20260503220358 | 22 | 291 | 16.1 | 32.2 | 0.00 | 0.00 | 0.00 | 23 | 1007.3 |
| 20260503215855 | 22 | 284 | 19.3 | 33.8 | 0.00 | 0.00 | 0.00 | 23 | 1007.5 |
| 20260503215352 | 22 | 316 | 19.3 | 33.8 | 0.00 | 0.00 | 0.00 | 24 | 1007.3 |
| 20260503214849 | 22 | 323 | 20.9 | 35.4 | 0.00 | 0.00 | 0.00 | 24 | 1007.5 |
| 20260503214347 | 22 | 296 | 20.9 | 32.2 | 0.00 | 0.00 | 0.00 | 24 | 1007.4 |
| 20260503213844 | 22 | 315 | 24.1 | 32.2 | 0.00 | 0.00 | 0.00 | 24 | 1007.6 |
| 20260503213342 | 22 | 346 | 16.1 | 29.0 | 0.00 | 0.00 | 0.00 | 24 | 1007.6 |
| 20260503212839 | 22 | 305 | 19.3 | 27.4 | 0.00 | 0.00 | 0.00 | 24 | 1007.7 |
| 20260503212336 | 22 | 304 | 20.9 | 25.7 | 0.00 | 0.00 | 0.00 | 23 | 1007.9 |
| 20260503211833 | 22 | 306 | 30.6 | 38.6 | 0.00 | 0.00 | 0.00 | 23 | 1007.9 |
| 20260503211330 | 22 | 280 | 27.4 | 40.2 | 0.00 | 0.00 | 0.00 | 23 | 1008.0 |
| 20260503210825 | 22 | 331 | 19.3 | 33.8 | 0.00 | 0.00 | 0.00 | 23 | 1007.9 |
| 20260503210323 | 21 | 313 | 17.7 | 20.9 | 0.00 | 0.00 | 0.00 | 23 | 1008.1 |
| 20260503205818 | 21 | 299 | 19.3 | 33.8 | 0.00 | 0.00 | 0.00 | 23 | 1008.4 |
| 20260503205314 | 21 | 309 | 12.9 | 22.5 | 0.00 | 0.00 | 0.00 | 23 | 1008.4 |
| 20260503204811 | 21 | 304 | 17.7 | 29.0 | 0.00 | 0.00 | 0.00 | 23 | 1008.4 |
| 20260503204309 | 21 | 325 | 19.3 | 32.2 | 0.00 | 0.00 | 0.00 | 24 | 1008.2 |
| 20260503203806 | 21 | 318 | 22.5 | 32.2 | 0.00 | 0.00 | 0.00 | 24 | 1008.5 |
| 20260503203303 | 21 | 296 | 20.9 | 40.2 | 0.00 | 0.00 | 0.00 | 24 | 1008.2 |
| 20260503202800 | 21 | 321 | 25.7 | 33.8 | 0.00 | 0.00 | 0.00 | 24 | 1008.5 |
| 20260503202258 | 21 | 298 | 25.7 | 41.8 | 0.00 | 0.00 | 0.00 | 23 | 1008.6 |
| 20260503201755 | 21 | 341 | 22.5 | 33.8 | 0.00 | 0.00 | 0.00 | 24 | 1008.6 |
| 20260503201253 | 20 | 288 | 17.7 | 33.8 | 0.00 | 0.00 | 0.00 | 24 | 1008.5 |
| 20260503200750 | 21 | 330 | 27.4 | 33.8 | 0.00 | 0.00 | 0.00 | 24 | 1008.8 |
| 20260503200246 | 21 | 297 | 27.4 | 38.6 | 0.00 | 0.00 | 0.00 | 24 | 1008.5 |
| 20260503195743 | 21 | 289 | 19.3 | 32.2 | 0.00 | 0.00 | 0.00 | 24 | 1008.8 |
| 20260503195239 | 21 | 289 | 22.5 | 32.2 | 0.00 | 0.00 | 0.00 | 24 | 1008.9 |
| 20260503194738 | 20 | 329 | 17.7 | 35.4 | 0.00 | 0.00 | 0.00 | 24 | 1009.0 |
| 20260503194233 | 20 | 284 | 16.1 | 25.7 | 0.00 | 0.00 | 0.00 | 25 | 1009.1 |
| 20260503193729 | 21 | 290 | 20.9 | 38.6 | 0.00 | 0.00 | 0.00 | 25 | 1009.2 |
| 20260503193225 | 20 | 317 | 20.9 | 27.4 | 0.00 | 0.00 | 0.00 | 23 | 1009.2 |
| 20260503192721 | 21 | 326 | 24.1 | 38.6 | 0.00 | 0.00 | 0.00 | 24 | 1009.3 |
| 20260503192216 | 20 | 311 | 17.7 | 29.0 | 0.00 | 0.00 | 0.00 | 25 | 1009.7 |
| 20260503191714 | 20 | 336 | 16.1 | 32.2 | 0.00 | 0.00 | 0.00 | 27 | 1009.7 |
| 20260503191211 | 20 | 10 | 17.7 | 29.0 | 0.00 | 0.00 | 0.00 | 26 | 1009.5 |
| 20260503190707 | 20 | 325 | 9.7 | 22.5 | 0.00 | 0.00 | 0.00 | 27 | 1009.5 |
| 20260503190204 | 20 | 331 | 20.9 | 37.0 | 0.00 | 0.00 | 0.00 | 26 | 1009.5 |
| 20260503185702 | 20 | 302 | 16.1 | 25.7 | 0.00 | 0.00 | 0.00 | 26 | 1009.7 |
| 20260503185156 | 20 | 290 | 17.7 | 27.4 | 0.00 | 0.00 | 0.00 | 26 | 1009.9 |
| 20260503184651 | 20 | 329 | 20.9 | 25.7 | 0.00 | 0.00 | 0.00 | 27 | 1010.1 |
| 20260503184148 | 19 | 301 | 16.1 | 22.5 | 0.00 | 0.00 | 0.00 | 27 | 1010.1 |
| 20260503183644 | 20 | 348 | 12.9 | 25.7 | 0.00 | 0.00 | 0.00 | 28 | 1010.0 |
| 20260503183142 | 20 | 279 | 9.7 | 17.7 | 0.00 | 0.00 | 0.00 | 27 | 1010.2 |
| 20260503182640 | 20 | 341 | 22.5 | 29.0 | 0.00 | 0.00 | 0.00 | 26 | 1010.2 |
| 20260503182139 | 20 | 299 | 16.1 | 22.5 | 0.00 | 0.00 | 0.00 | 27 | 1009.9 |
| 20260503181635 | 19 | 331 | 20.9 | 27.4 | 0.00 | 0.00 | 0.00 | 27 | 1010.4 |
| 20260503181132 | 20 | 313 | 14.5 | 22.5 | 0.00 | 0.00 | 0.00 | 27 | 1010.1 |
| 20260503180628 | 19 | 326 | 9.7 | 17.7 | 0.00 | 0.00 | 0.00 | 30 | 1010.3 |
| 20260503180126 | 19 | 315 | 17.7 | 27.4 | 0.00 | 0.00 | 0.00 | 29 | 1010.4 |
| 20260503175623 | 19 | 330 | 17.7 | 27.4 | 0.00 | 0.00 | 0.00 | 30 | 1010.4 |
| 20260503175120 | 18 | 318 | 11.3 | 20.9 | 0.00 | 0.00 | 0.00 | 31 | 1010.7 |
| 20260503174617 | 18 | 312 | 9.7 | 20.9 | 0.00 | 0.00 | 0.00 | 31 | 1010.7 |
| 20260503174114 | 18 | 332 | 20.9 | 24.1 | 0.00 | 0.00 | 0.00 | 30 | 1010.7 |
| 20260503173609 | 18 | 292 | 14.5 | 22.5 | 0.00 | 0.00 | 0.00 | 30 | 1010.9 |
| 20260503173106 | 18 | 356 | 12.9 | 20.9 | 0.00 | 0.00 | 0.00 | 28 | 1010.9 |
| 20260503172603 | 18 | 312 | 17.7 | 22.5 | 0.00 | 0.00 | 0.00 | 28 | 1010.9 |
| 20260503172100 | 18 | 327 | 17.7 | 24.1 | 0.00 | 0.00 | 0.00 | 28 | 1010.9 |
| 20260503171556 | 18 | 330 | 11.3 | 22.5 | 0.00 | 0.00 | 0.00 | 29 | 1011.1 |
| 20260503171054 | 18 | 335 | 14.5 | 29.0 | 0.00 | 0.00 | 0.00 | 30 | 1011.1 |
| 20260503170550 | 18 | 303 | 14.5 | 24.1 | 0.00 | 0.00 | 0.00 | 30 | 1011.0 |
| 20260503150943 | 15 | 285 | 14.5 | 17.7 | 0.00 | 0.00 | 0.00 | 35 | 1011.2 |
| 20260503150439 | 15 | 307 | 17.7 | 22.5 | 0.00 | 0.00 | 0.00 | 36 | 1011.1 |
| 20260503131332 | 11 | 281 | 14.5 | 17.7 | 0.00 | 0.00 | 0.00 | 63 | 1011.4 |
| 20260503130829 | 10 | 312 | 14.5 | 17.7 | 0.00 | 0.00 | 0.00 | 64 | 1011.7 |
| 20260503130327 | 10 | 317 | 12.9 | 16.1 | 0.00 | 0.00 | 0.00 | 65 | 1011.3 |
| 20260503110721 | 3 | 49 | 1.6 | 1.6 | 0.00 | 0.00 | 0.00 | 84 | 1012.1 |
| 20260503110218 | 2 | 4 | 4.8 | 4.8 | 0.00 | 0.00 | 0.00 | 86 | 1012.0 |
| 20260503100144 | 3 | 339 | 0.0 | 0.0 | 0.00 | 0.00 | 0.00 | 84 | 1012.8 |
| 20260503081533 | 8 | 95 | 3.2 | 3.2 | 0.00 | 0.00 | 0.00 | 66 | 1013.1 |
| 20260503081030 | 7 | 95 | 0.0 | 1.6 | 0.00 | 0.00 | 0.00 | 67 | 1013.4 |
| 20260503080526 | 7 | 97 | 0.0 | 1.6 | 0.00 | 0.00 | 0.00 | 67 | 1013.6 |
| 20260503072500 | 7 | 92 | 1.6 | 3.2 | 0.00 | 0.00 | 0.00 | 68 | 1013.7 |
| 20260503071957 | 6 | 100 | 1.6 | 3.2 | 0.00 | 0.00 | 0.00 | 71 | 1014.0 |
| 20260503071454 | 6 | 105 | 1.6 | 1.6 | 0.00 | 0.00 | 0.00 | 70 | 1013.9 |
| 20260503070950 | 6 | 105 | 0.0 | 0.0 | 0.00 | 0.00 | 0.00 | 71 | 1013.9 |
| 20260503070447 | 7 | 107 | 1.6 | 3.2 | 0.00 | 0.00 | 0.00 | 68 | 1013.9 |
| 20260503054906 | 7 | 95 | 0.0 | 0.0 | 0.00 | 0.00 | 0.00 | 67 | 1014.3 |
| 20260503054402 | 6 | 74 | 1.6 | 1.6 | 0.00 | 0.00 | 0.00 | 71 | 1014.2 |
| 20260503053900 | 7 | 96 | 0.0 | 1.6 | 0.00 | 0.00 | 0.00 | 65 | 1014.2 |
| 20260503053358 | 7 | 90 | 0.0 | 0.0 | 0.00 | 0.00 | 0.00 | 65 | 1014.3 |
| 20260503052854 | 7 | 79 | 0.0 | 1.6 | 0.00 | 0.00 | 0.00 | 66 | 1014.3 |
| 20260503052351 | 8 | 73 | 0.0 | 1.6 | 0.00 | 0.00 | 0.00 | 65 | 1014.4 |
| 20260503051847 | 7 | 65 | 0.0 | 1.6 | 0.00 | 0.00 | 0.00 | 67 | 1014.5 |
| 20260503051344 | 7 | 32 | 1.6 | 1.6 | 0.00 | 0.00 | 0.00 | 70 | 1014.7 |
| 20260503050841 | 7 | 346 | 3.2 | 3.2 | 0.00 | 0.00 | 0.00 | 69 | 1014.6 |
| 20260503050337 | 6 | 24 | 3.2 | 3.2 | 0.00 | 0.00 | 0.00 | 73 | 1014.7 |
| 20260503045835 | 5 | 305 | 1.6 | 3.2 | 0.00 | 0.00 | 0.00 | 77 | 1014.5 |
| 20260503045332 | 7 | 308 | 3.2 | 3.2 | 0.00 | 0.00 | 0.00 | 72 | 1014.5 |
| 20260503044828 | 7 | 14 | 0.0 | 1.6 | 0.00 | 0.00 | 0.00 | 67 | 1014.4 |
| 20260503044325 | 7 | 3 | 1.6 | 1.6 | 0.00 | 0.00 | 0.00 | 69 | 1014.3 |
| 20260503043822 | 6 | 346 | 3.2 | 4.8 | 0.00 | 0.00 | 0.00 | 72 | 1014.4 |
| 20260503043319 | 7 | 35 | 3.2 | 3.2 | 0.00 | 0.00 | 0.00 | 68 | 1014.4 |
| 20260503042815 | 8 | 41 | 1.6 | 3.2 | 0.00 | 0.00 | 0.00 | 66 | 1014.5 |
| 20260503042312 | 9 | 43 | 1.6 | 1.6 | 0.00 | 0.00 | 0.00 | 63 | 1014.4 |
| 20260503041808 | 10 | 43 | 1.6 | 1.6 | 0.00 | 0.00 | 0.00 | 62 | 1014.2 |
| 20260503041306 | 10 | 20 | 0.0 | 1.6 | 0.00 | 0.00 | 0.00 | 61 | 1014.4 |
| 20260503040803 | 8 | 7 | 1.6 | 1.6 | 0.00 | 0.00 | 0.00 | 66 | 1014.4 |
| 20260503040301 | 8 | 351 | 4.8 | 4.8 | 0.00 | 0.00 | 0.00 | 66 | 1014.3 |
| 20260503035757 | 10 | 346 | 6.4 | 8.0 | 0.00 | 0.00 | 0.00 | 64 | 1014.5 |